Overview Statistics Trail Chart Weather Telemetry Raw packets
 

This is the latest recevied weather packets stored in our database for station/object KC1BRV. If no packets are shown the sender has not sent any weather packets the latest 10 day(s).

<< 73 74 75 76 77 78 79 >>
Time Temp. Humidity Pressure Rain* Wind** Luminosity Snow
1788092646 18.89° C 86% 1022.9 hPa 0 mm - 56 W/m² -
1788092346 18.33° C 87% 1022.8 hPa 0 mm - 63 W/m² -
1788092041 17.78° C 91% 1022.8 hPa 0 mm - 58 W/m² -
1788091736 17.78° C 94% 1022.8 hPa 0 mm - 64 W/m² -
1788091432 17.22° C 96% 1022.6 hPa 0 mm - 73 W/m² -
1788091128 17.22° C 97% 1022.7 hPa 0 mm - 56 W/m² -
1788090824 17.22° C 97% 1022.9 hPa 0 mm - 50 W/m² -
1788090519 16.67° C 98% 1022.6 hPa 0 mm - 54 W/m² -
1788090216 16.67° C 98% 1022.9 hPa 0 mm - 72 W/m² -
1788089910 16.67° C 98% 1022.7 hPa 0 mm - 69 W/m² -
1788089605 16.11° C 98% 1022.8 hPa 0 mm - 54 W/m² -
1788089301 16.11° C 98% 1022.8 hPa 0 mm - 50 W/m² -
1788088997 15.56° C 98% 1022.8 hPa 0 mm - 50 W/m² -
1788088693 15.56° C 98% 1022.8 hPa 0 mm - 47 W/m² -
1788088389 15.56° C 98% 1022.7 hPa 0 mm - 43 W/m² -
1788088088 15° C 98% 1022.7 hPa 0 mm - 35 W/m² -
1788087785 15° C 98% 1022.7 hPa 0 mm - 27 W/m² -
1788087483 15° C 98% 1022.5 hPa 0 mm - 20 W/m² -
1788087180 15° C 98% 1022.5 hPa 0 mm - 19 W/m² -
1788086875 15° C 98% 1022.6 hPa 0 mm - 18 W/m² -
1788086573 15° C 98% 1022.8 hPa 0 mm - 16 W/m² -
1788086271 14.44° C 98% 1022.7 hPa 0 mm - 13 W/m² -
1788085968 14.44° C 98% 1022.9 hPa 0 mm - 9 W/m² -
1788085665 14.44° C 98% 1022.9 hPa 0 mm - 8 W/m² -
1788085361 14.44° C 98% 1022.8 hPa 0 mm - 5 W/m² -

* Rain latest hour (hover to see other rain measurements)
** Current wind speed in m/s (hover to see current wind gust speed)